Torna al catalogo

STARLINK-4622

AttivoComunicazioniSSO
NORAD 53648·PAYLOAD·🇺🇸 United States

Lanciato Aug 31, 2022 da Vandenberg Space Force Base

Loading…

Prossimi Passaggi (prossime 24 ore)

TLE

AggiornatoSource: CelesTrak SupGP

Epoca: Sep 15, 2026, 02:10 UTC

1 53648C 22105A   26258.09076389  .00049342  00000+0  34254-2 0  2580
2 53648  97.2845 132.2254 0001861  91.0662  27.7099 15.05636196    19

Traccia STARLINK-4622 in tempo reale con AllMySat

Download on the App Store